[[{"header":{"parameterUnit":"m.s-1","parameterCategory":2,"la1":30.2992,"la2":30.254,"lo1":-89.0895,"lo2":-89.0443,"dy":0.0025,"dx":0.0025,"nx":19,"ny":19,"refTime":"2026-05-05T09:00:00:Z","depth":"0","parameterNumber":2,"parameterNumberName":"U-component_of_CURRENTS"},"data":[0,0,0,0.236,0.236,0.2382,0.2382,0.254,0.2542,0,0,0,0,0,0,0,0,0,0,0,0.2349,0.2349,0.236,0.236,0.2382,0.2382,0.2539,0.2542,0,0,0,0,0,0,0,0,0,0,0,0.2349,0.2349,0.2349,0.236,0.2382,0.2382,0.2539,0.2491,0,0,0,0,0,0,0,0,0,0,0.2454,0.2431,0.2349,0.2349,0.2361,0.2382,0.2382,0.2487,0.2494,0.2568,0,0.2565,0,0.2563,0.2555,0.2556,0,0,0,0.2361,0.2425,0.2426,0.2349,0.2361,0.2381,0.2372,0.249,0.2498,0.2578,0.2567,0.2572,0.2566,0.2557,0.2558,0.2751,0.2751,0,0,0.2359,0.2364,0.242,0.243,0.2363,0.2371,0.2373,0.2493,0.2507,0.2568,0.2576,0.2569,0.2558,0.2559,0.275,0.2751,0,0,0,0.2356,0.2363,0.2358,0.2425,0.2422,0.2372,0.2374,0.2501,0.2497,0.2577,0.257,0.2559,0.2562,0.275,0.2751,0.2787,0,0,0,0.2355,0.2361,0.2358,0.2362,0.2418,0.2446,0.2379,0.2489,0.2502,0.257,0.2559,0.2563,0.2749,0.275,0.2785,0.2823,0,0,0,0.2348,0.2361,0.2359,0.2362,0.237,0.2443,0.2446,0.249,0.2499,0.2556,0.2564,0.2748,0.275,0.2782,0.2819,0.2942,0,0,0,0.2357,0.236,0.236,0.2377,0.237,0.2425,0.2444,0.2495,0.2543,0.256,0.2749,0.275,0.2782,0.2816,0.2938,0.2857,0.287,0,0,0.2364,0.2362,0.2374,0.2373,0.2421,0.2422,0.2504,0.2565,0.2593,0.2718,0.2721,0.2785,0.2818,0.2941,0.2939,0.2949,0,0,0,0.2379,0.2389,0.2407,0.2432,0.2467,0.2524,0.2569,0.2613,0.2705,0.2627,0.2804,0.2825,0.2901,0.2843,0.2852,0.2793,0.2757,0.2757,0.2757,0.2388,0.2408,0.2447,0.2484,0.2527,0.2608,0.2678,0.275,0.276,0.2804,0.2867,0.3004,0.294,0.2946,0.2885,0.2871,0.2871,0.2871,0.2871,0.2407,0.2431,0.2476,0.252,0.2589,0.2662,0.2797,0.2828,0.2992,0.2931,0.3004,0.2899,0.2958,0.2889,0.2874,0.2873,0.2873,0.2873,0.2872,0.2404,0.2423,0.2453,0.2545,0.2626,0.2714,0.2879,0.2978,0.3042,0.3121,0.3107,0.3104,0.3039,0.3169,0.317,0.317,0.3171,0.3171,0.3172,0.2389,0.2425,0.2527,0.2599,0.2662,0.2778,0.2958,0.3072,0.3173,0.3173,0.3173,0.3073,0.3097,0.308,0.3183,0.3181,0.318,0.3178,0.3178,0.2411,0.2489,0.261,0.2694,0.2812,0.2835,0.3007,0.3128,0.327,0.3288,0.3159,0.3218,0.322,0.321,0.3196,0.3325,0.3325,0.3325,0.3325,0.2477,0.2513,0.2712,0.2821,0.2892,0.2877,0.2886,0.2954,0.3079,0.3096,0.3189,0.3054,0.3051,0.3036,0.303,0.301,0.3089,0.3088,0.3088,0.2565,0.262,0.2748,0.2848,0.2893,0.2842,0.2701,0.2595,0.2818,0.3077,0.3134,0.3144,0.294,0.294,0.2904,0.2901,0.2864,0,0]},{"header":{"parameterUnit":"m.s-1","parameterCategory":2,"la1":30.2992,"la2":30.254,"lo1":-89.0895,"lo2":-89.0443,"dy":0.0025,"dx":0.0025,"nx":19,"ny":19,"refTime":"2026-05-05T09:00:00:Z","depth":"0","parameterNumber":3,"parameterNumberName":"V-component_of_CURRENTS"},"data":[0,0,0,0.0375,0.0375,0.0413,0.0413,0.052,0.0521,0,0,0,0,0,0,0,0,0,0,0,0.0363,0.0363,0.0375,0.0375,0.0413,0.0414,0.052,0.0521,0,0,0,0,0,0,0,0,0,0,0,0.0363,0.0363,0.0363,0.0376,0.0413,0.0414,0.0519,0.0479,0,0,0,0,0,0,0,0,0,0,0.0436,0.0417,0.0363,0.0363,0.0376,0.0413,0.0414,0.0477,0.0482,0.0516,0,0.0514,0,0.0516,0.0528,0.0529,0,0,0,0.0387,0.0413,0.0417,0.0363,0.0376,0.0413,0.0399,0.0479,0.0485,0.0523,0.0515,0.0519,0.0518,0.0529,0.0529,0.0692,0.0693,0,0,0.0384,0.0381,0.0412,0.042,0.0377,0.0398,0.04,0.0482,0.049,0.0515,0.0521,0.052,0.053,0.053,0.0691,0.0692,0,0,0,0.0371,0.0379,0.038,0.0416,0.0416,0.0399,0.0402,0.0486,0.0484,0.0522,0.0521,0.053,0.0532,0.069,0.0691,0.0774,0,0,0,0.037,0.037,0.0379,0.0379,0.0414,0.0445,0.0404,0.0479,0.0488,0.052,0.053,0.0533,0.0689,0.069,0.0769,0.0844,0,0,0,0.0363,0.037,0.037,0.0378,0.0389,0.0443,0.0446,0.048,0.0487,0.0529,0.0533,0.0688,0.069,0.0765,0.0836,0.0931,0,0,0,0.0365,0.0377,0.037,0.0397,0.0388,0.0459,0.0446,0.05,0.0539,0.0531,0.0689,0.0691,0.0764,0.0831,0.0925,0.0968,0.0997,0,0,0.0383,0.0379,0.0399,0.0393,0.0462,0.0455,0.0561,0.0593,0.0587,0.0665,0.0669,0.0771,0.0835,0.0929,0.1098,0.1123,0,0,0,0.0408,0.0424,0.0445,0.0481,0.0521,0.0607,0.0625,0.0653,0.0724,0.0617,0.0794,0.0833,0.0889,0.0904,0.0925,0.0943,0.0701,0.0701,0.0701,0.0435,0.0463,0.0523,0.0574,0.0632,0.0718,0.0793,0.0841,0.0803,0.0849,0.0915,0.107,0.1086,0.1102,0.1121,0.0912,0.0913,0.0913,0.0913,0.0491,0.0537,0.0596,0.0662,0.0755,0.085,0.0976,0.0982,0.1105,0.1026,0.1074,0.1009,0.1129,0.1141,0.0919,0.0918,0.0917,0.0917,0.0916,0.0523,0.0554,0.0591,0.0707,0.085,0.0958,0.1186,0.1232,0.121,0.1276,0.1293,0.1291,0.129,0.1294,0.1294,0.1295,0.1296,0.1296,0.1297,0.054,0.0584,0.0677,0.0786,0.0897,0.1107,0.1327,0.1439,0.1485,0.1432,0.1431,0.1365,0.1187,0.1159,0.1309,0.1307,0.1305,0.1304,0.1303,0.059,0.0623,0.0753,0.0863,0.1143,0.1421,0.1577,0.1764,0.1803,0.1808,0.1629,0.151,0.15,0.1482,0.1462,0.1682,0.1682,0.1682,0.1682,0.0633,0.0658,0.0886,0.11,0.1371,0.1606,0.1937,0.2011,0.1921,0.1847,0.1796,0.17,0.1683,0.1677,0.1654,0.1635,0.1894,0.1894,0.1894,0.0689,0.0757,0.0954,0.118,0.1499,0.1822,0.2098,0.2165,0.1992,0.1902,0.1825,0.1816,0.1665,0.1637,0.1609,0.1576,0.1536,0,0]}],[{"header":{"parameterUnit":"m.s-1","parameterCategory":2,"la1":30.2992,"la2":30.254,"lo1":-89.0895,"lo2":-89.0443,"dy":0.0025,"dx":0.0025,"nx":19,"ny":19,"refTime":"2026-05-05T09:00:00:Z","depth":"2","parameterNumber":2,"parameterNumberName":"U-component_of_CURRENTS"},"data":[0,0,0,0.2294,0.2295,0.2321,0.2321,0.2482,0.2484,0,0,0,0,0,0,0,0,0,0,0,0.2283,0.2283,0.2294,0.2295,0.2321,0.2321,0.2481,0.2484,0,0,0,0,0,0,0,0,0,0,0,0.2283,0.2283,0.2283,0.2295,0.2321,0.2321,0.2481,0.243,0,0,0,0,0,0,0,0,0,0,0.2389,0.2373,0.2283,0.2283,0.2295,0.2321,0.2321,0.2426,0.2433,0.2506,0,0.2505,0,0.2504,0.2497,0.2498,0,0,0,0.2296,0.2367,0.2362,0.2283,0.2295,0.2321,0.2309,0.2429,0.2437,0.2517,0.2507,0.2513,0.2506,0.2499,0.25,0.2693,0.2694,0,0,0.2294,0.2305,0.2355,0.2366,0.23,0.2308,0.231,0.2433,0.2452,0.2508,0.2516,0.2509,0.25,0.2501,0.2692,0.2693,0,0,0,0.229,0.2305,0.2294,0.2361,0.2358,0.2309,0.2311,0.2446,0.2438,0.2517,0.2511,0.2501,0.2504,0.2692,0.2693,0.2731,0,0,0,0.2289,0.2302,0.2293,0.2303,0.2355,0.2389,0.2322,0.2429,0.2442,0.251,0.2501,0.2506,0.2691,0.2692,0.2729,0.2768,0,0,0,0.2282,0.2302,0.2299,0.2303,0.2312,0.2386,0.2385,0.2431,0.244,0.2498,0.2506,0.2691,0.2692,0.2726,0.2764,0.2883,0,0,0,0.2299,0.23,0.23,0.2318,0.2311,0.2364,0.2384,0.2439,0.2488,0.2502,0.2691,0.2693,0.2726,0.2761,0.2879,0.276,0.2769,0,0,0.2305,0.2302,0.2313,0.2312,0.2359,0.2361,0.2445,0.251,0.2537,0.2659,0.2662,0.2729,0.2763,0.2882,0.2841,0.2848,0,0,0,0.2318,0.2328,0.2346,0.2373,0.2406,0.2466,0.2513,0.2556,0.2648,0.2572,0.2747,0.2769,0.2843,0.2762,0.2768,0.2699,0.2699,0.2699,0.2699,0.2328,0.2347,0.2382,0.2418,0.2468,0.2552,0.2622,0.2694,0.2705,0.2749,0.2812,0.2947,0.2857,0.2862,0.2814,0.2814,0.2814,0.2815,0.2815,0.2338,0.2356,0.2407,0.2448,0.2522,0.2603,0.2741,0.2773,0.2934,0.2875,0.2945,0.2819,0.287,0.2818,0.2817,0.2817,0.2817,0.2816,0.2816,0.2326,0.2342,0.237,0.246,0.2555,0.2656,0.2819,0.2921,0.2985,0.3063,0.3022,0.3019,0.3002,0.3111,0.3111,0.3112,0.3113,0.3113,0.3114,0.2303,0.2335,0.2426,0.2499,0.2582,0.2709,0.2897,0.3007,0.3095,0.3086,0.3085,0.3048,0.3039,0.3022,0.3124,0.3122,0.3121,0.312,0.3119,0.2312,0.2371,0.25,0.2589,0.274,0.2756,0.2933,0.3033,0.3173,0.3181,0.3116,0.3112,0.3108,0.31,0.3085,0.32,0.32,0.32,0.32,0.2363,0.2383,0.2601,0.2731,0.2825,0.2803,0.2755,0.2716,0.2848,0.2826,0.2841,0.2683,0.269,0.2654,0.2655,0.2628,0.2624,0.2622,0.2621,0.2432,0.2502,0.2639,0.2753,0.2841,0.2761,0.2515,0.2215,0.2271,0.2591,0.2665,0.3176,0.2979,0.2975,0.2946,0.2939,0.2906,0,0]},{"header":{"parameterUnit":"m.s-1","parameterCategory":2,"la1":30.2992,"la2":30.254,"lo1":-89.0895,"lo2":-89.0443,"dy":0.0025,"dx":0.0025,"nx":19,"ny":19,"refTime":"2026-05-05T09:00:00:Z","depth":"2","parameterNumber":3,"parameterNumberName":"V-component_of_CURRENTS"},"data":[0,0,0,0.031,0.0311,0.0351,0.0351,0.0457,0.0458,0,0,0,0,0,0,0,0,0,0,0,0.0297,0.0297,0.031,0.0311,0.0351,0.0351,0.0457,0.0458,0,0,0,0,0,0,0,0,0,0,0,0.0297,0.0297,0.0297,0.0311,0.0351,0.0351,0.0457,0.0415,0,0,0,0,0,0,0,0,0,0,0.037,0.0355,0.0297,0.0297,0.0311,0.0351,0.0351,0.0413,0.0418,0.0451,0,0.0449,0,0.0453,0.0465,0.0466,0,0,0,0.0321,0.0351,0.0351,0.0297,0.0311,0.0351,0.0336,0.0415,0.0421,0.0458,0.0451,0.0454,0.0454,0.0466,0.0467,0.0624,0.0625,0,0,0.0319,0.0319,0.0347,0.0354,0.0313,0.0334,0.0337,0.0418,0.0429,0.0451,0.0457,0.0456,0.0467,0.0468,0.0623,0.0624,0,0,0,0.0306,0.0318,0.0316,0.0351,0.0352,0.0335,0.0338,0.0425,0.0421,0.0458,0.0457,0.0467,0.0469,0.0622,0.0624,0.0707,0,0,0,0.0305,0.0308,0.0314,0.0317,0.0349,0.0384,0.0343,0.0415,0.0424,0.0457,0.0467,0.047,0.0621,0.0623,0.0703,0.0777,0,0,0,0.0297,0.0308,0.0307,0.0316,0.0327,0.0382,0.0383,0.0417,0.0424,0.0466,0.047,0.0621,0.0623,0.0699,0.0769,0.086,0,0,0,0.0303,0.0314,0.0307,0.0334,0.0327,0.0396,0.0383,0.0438,0.0477,0.0468,0.0621,0.0624,0.0697,0.0764,0.0855,0.087,0.0896,0,0,0.0321,0.0316,0.0335,0.033,0.0398,0.0392,0.0497,0.053,0.0523,0.0598,0.0601,0.0704,0.0768,0.0859,0.0995,0.1017,0,0,0,0.0345,0.036,0.0382,0.0418,0.0457,0.0543,0.0562,0.0588,0.0657,0.0553,0.0725,0.0764,0.0818,0.0816,0.0835,0.0634,0.0634,0.0633,0.0633,0.0373,0.0399,0.0456,0.0506,0.0566,0.0654,0.0727,0.0772,0.0736,0.0779,0.0845,0.0996,0.0994,0.1008,0.084,0.0841,0.0841,0.0841,0.0842,0.0422,0.0463,0.0524,0.0586,0.0681,0.0778,0.0905,0.0912,0.103,0.0952,0.0999,0.0921,0.1033,0.0849,0.0847,0.0846,0.0846,0.0845,0.0845,0.0448,0.0476,0.0509,0.0621,0.077,0.0885,0.1112,0.1157,0.1135,0.1199,0.1197,0.1195,0.1061,0.1217,0.1218,0.1219,0.1219,0.122,0.122,0.046,0.05,0.0573,0.0684,0.0808,0.1025,0.125,0.1358,0.1393,0.1333,0.1332,0.1124,0.1111,0.1085,0.1232,0.123,0.1228,0.1227,0.1226,0.0502,0.0506,0.0638,0.0747,0.1052,0.1331,0.1488,0.1657,0.1693,0.1689,0.1405,0.1397,0.1383,0.1366,0.1347,0.1553,0.1553,0.1553,0.1554,0.0521,0.0531,0.0756,0.0986,0.1281,0.1517,0.1792,0.1772,0.1665,0.1505,0.1506,0.1391,0.138,0.1357,0.1341,0.1317,0.1516,0.1516,0.1515,0.0554,0.0629,0.0823,0.1058,0.1419,0.1726,0.1903,0.1763,0.1499,0.1507,0.1433,0.1564,0.1392,0.1376,0.1333,0.131,0.1268,0,0]}],[{"header":{"parameterUnit":"m.s-1","parameterCategory":2,"la1":30.2992,"la2":30.254,"lo1":-89.0895,"lo2":-89.0443,"dy":0.0025,"dx":0.0025,"nx":19,"ny":19,"refTime":"2026-05-05T09:00:00:Z","depth":"4","parameterNumber":2,"parameterNumberName":"U-component_of_CURRENTS"},"data":[0,0,0,0.1238,0.124,0.1345,0.1346,0.1465,0.1466,0,0,0,0,0,0,0,0,0,0,0,0.1218,0.1219,0.1238,0.124,0.1345,0.1346,0.1465,0.1466,0,0,0,0,0,0,0,0,0,0,0,0.1218,0.1219,0.122,0.124,0.1345,0.1346,0.1465,0.1391,0,0,0,0,0,0,0,0,0,0,0.1292,0.1271,0.1219,0.122,0.1241,0.1345,0.1346,0.1388,0.1396,0.1409,0,0.1436,0,0.1442,0.1472,0.1473,0,0,0,0.125,0.1264,0.129,0.122,0.1241,0.1345,0.1301,0.1393,0.1401,0.1419,0.1437,0.1441,0.1444,0.1473,0.1474,0.1636,0.1637,0,0,0.1245,0.1239,0.1284,0.1296,0.1282,0.1297,0.1304,0.1398,0.1414,0.1438,0.1444,0.1446,0.1474,0.1475,0.1635,0.1637,0,0,0,0.1221,0.1234,0.1259,0.1291,0.1306,0.13,0.1308,0.141,0.1418,0.1445,0.1447,0.1474,0.1476,0.1634,0.1636,0.1667,0,0,0,0.1218,0.1219,0.1256,0.1254,0.1304,0.136,0.1318,0.1413,0.1423,0.1446,0.1474,0.1477,0.1633,0.1635,0.1663,0.1692,0,0,0,0.1211,0.1218,0.1234,0.1253,0.1292,0.1359,0.1373,0.1415,0.1423,0.1473,0.1477,0.1632,0.1635,0.166,0.1687,0.1759,0,0,0,0.1195,0.121,0.1235,0.1255,0.1291,0.1317,0.1372,0.1434,0.1479,0.1475,0.1633,0.1636,0.166,0.1684,0.1755,0.1477,0,0,0,0.1195,0.121,0.1219,0.1242,0.1256,0.1302,0.1361,0.1469,0.1524,0.16,0.1604,0.1665,0.1686,0.1758,0.1626,0,0,0,0,0.1204,0.1208,0.122,0.124,0.1268,0.1348,0.1419,0.1492,0.164,0.1561,0.1707,0.1721,0.1764,0.1593,0.1648,0.1648,0.1647,0.1647,0.1647,0.1191,0.1199,0.1198,0.1227,0.1274,0.1387,0.1485,0.1608,0.1637,0.1746,0.1776,0.1895,0.1717,0.1803,0.1804,0.1804,0.1804,0.1804,0.1804,0.1145,0.1113,0.1178,0.1188,0.1289,0.1367,0.1568,0.1664,0.186,0.1859,0.1899,0.1674,0.1808,0.1808,0.1807,0.1806,0.1806,0.1806,0.1806,0.1096,0.1063,0.1102,0.1117,0.1245,0.1399,0.159,0.1768,0.19,0.1978,0.1834,0.1945,0.1908,0.2018,0.2019,0.2019,0.202,0.202,0.202,0.0983,0.1001,0.0925,0.1037,0.109,0.1302,0.1635,0.1752,0.1907,0.1871,0.2019,0.1969,0.1962,0.1924,0.2027,0.2026,0.2025,0.2025,0.2024,0.081,0.0765,0.0678,0.0684,0.0864,0.1082,0.1437,0.1684,0.1795,0.1778,0.1809,0.1818,0.1791,0.1789,0.1743,0.1797,0.1794,0.1791,0,0.0601,0.0598,0.0381,0.0376,0.0555,0.0909,0.1107,0.1351,0.1524,0.1476,0.1706,0.1731,0.1739,0.1694,0.1688,0.1625,0,0,0,0.0374,0.0338,0.017,0.0196,0.0404,0.0797,0.1186,0.1242,0.1502,0.154,0.1711,0.1732,0.1821,0.2049,0.2029,0.202,0.1959,0,0]},{"header":{"parameterUnit":"m.s-1","parameterCategory":2,"la1":30.2992,"la2":30.254,"lo1":-89.0895,"lo2":-89.0443,"dy":0.0025,"dx":0.0025,"nx":19,"ny":19,"refTime":"2026-05-05T09:00:00:Z","depth":"4","parameterNumber":3,"parameterNumberName":"V-component_of_CURRENTS"},"data":[0,0,0,0.0053,0.0054,0.0093,0.0093,0.0151,0.0151,0,0,0,0,0,0,0,0,0,0,0,0.0046,0.0046,0.0053,0.0054,0.0092,0.0093,0.0151,0.0151,0,0,0,0,0,0,0,0,0,0,0,0.0046,0.0046,0.0046,0.0054,0.0092,0.0093,0.015,0.0122,0,0,0,0,0,0,0,0,0,0,0.0084,0.0069,0.0046,0.0046,0.0054,0.0092,0.0093,0.012,0.0123,0.0132,0,0.0137,0,0.0138,0.0154,0.0154,0,0,0,0.0064,0.0066,0.0077,0.0046,0.0054,0.0092,0.0078,0.0122,0.0126,0.0137,0.0137,0.0139,0.0139,0.0155,0.0155,0.0227,0.0228,0,0,0.0062,0.0054,0.0075,0.0079,0.0062,0.0077,0.0079,0.0124,0.0127,0.0138,0.0141,0.014,0.0155,0.0155,0.0227,0.0227,0,0,0,0.0049,0.0052,0.0062,0.0077,0.008,0.0077,0.008,0.0125,0.0128,0.0141,0.0141,0.0155,0.0156,0.0226,0.0227,0.0284,0,0,0,0.0048,0.0044,0.0061,0.0057,0.0079,0.01,0.008,0.0126,0.013,0.0141,0.0155,0.0156,0.0226,0.0227,0.0281,0.0324,0,0,0,0.0044,0.0043,0.0047,0.0056,0.0068,0.01,0.0106,0.0127,0.013,0.0154,0.0156,0.0225,0.0226,0.0279,0.032,0.036,0,0,0,0.0036,0.0049,0.0047,0.0069,0.0067,0.0108,0.0106,0.014,0.0163,0.0155,0.0226,0.0227,0.0278,0.0317,0.0357,0.0331,0,0,0,0.005,0.0051,0.0066,0.0065,0.0108,0.0103,0.0162,0.0189,0.0182,0.0212,0.0214,0.0282,0.0319,0.0359,0.0392,0,0,0,0,0.007,0.0082,0.0095,0.0119,0.0141,0.0191,0.0202,0.0216,0.0257,0.0198,0.0287,0.031,0.0333,0.0309,0.0232,0.0232,0.0232,0.0232,0.0231,0.0085,0.0105,0.0145,0.0179,0.0209,0.0253,0.029,0.0312,0.0294,0.0322,0.0359,0.0436,0.0412,0.0352,0.0353,0.0353,0.0353,0.0353,0.0354,0.0126,0.0158,0.0193,0.0239,0.0289,0.034,0.0395,0.0398,0.0455,0.0421,0.0439,0.0374,0.0359,0.0358,0.0357,0.0357,0.0356,0.0356,0.0356,0.0146,0.0167,0.0195,0.0277,0.0361,0.042,0.0534,0.0548,0.0521,0.055,0.0525,0.0484,0.0476,0.0563,0.0563,0.0563,0.0564,0.0564,0.0564,0.0156,0.0187,0.0285,0.0339,0.0411,0.0517,0.063,0.0653,0.0629,0.0607,0.0582,0.0507,0.05,0.0488,0.057,0.0569,0.0568,0.0568,0.0567,0.0188,0.0231,0.0359,0.0439,0.059,0.062,0.0722,0.0739,0.0761,0.0703,0.0626,0.0622,0.0603,0.0594,0.0584,0.0698,0.0698,0.0698,0,0.0233,0.0257,0.0478,0.0622,0.0712,0.0719,0.0763,0.0767,0.0704,0.07,0.0706,0.0619,0.0615,0.0591,0.0583,0.0571,0,0,0,0.0288,0.0349,0.0515,0.0671,0.0764,0.0753,0.0774,0.0778,0.072,0.0704,0.0698,0.0698,0.0601,0.0587,0.0548,0.054,0.052,0,0]}]]